Theta_e
328 327 328 330 329 329 329 330 329 329 330 330 330 330 332 332 332 332 331 330 330 330 332 333 332 332 331 332 333 333 333 332 330 328 327 327 325 325 327 326 325 326 326 324 323 321 318 316 318 324 326 326 326 327 327 327 328 327 327 327 327 328 327
332 330 327 325 328 326 325 326 327 328 328 329 329 329 330 331 332 331 330 329 329 329 331 332 332 333 330 330 331 332 331 331 331 330 329 327 326 325 325 324 325 324 324 323 324 322 318 317 318 319 320 325 327 327 326 327 329 329 328 328 328 329 328
326 326 323 324 325 325 324 325 325 325 327 327 328 330 330 330 330 330 330 329 329 329 331 330 331 330 329 330 331 331 331 330 330 329 328 327 327 326 326 325 323 323 322 321 321 321 321 320 318 319 321 321 320 324 327 326 327 328 328 329 329 329 328
325 325 325 325 325 323 323 324 323 324 325 327 328 329 329 330 330 331 329 328 329 329 329 328 328 328 329 329 330 331 331 329 329 327 326 326 327 326 326 326 323 324 321 320 320 321 321 319 318 319 322 323 322 321 324 326 326 328 328 328 328 329 328
324 326 325 323 323 320 321 322 323 323 324 325 326 326 327 328 329 329 329 328 328 328 328 328 327 327 328 329 327 326 326 327 328 327 326 325 326 326 326 326 326 325 325 323 323 324 322 322 321 320 321 323 323 323 325 325 327 328 328 327 328 329 329
323 323 322 322 322 321 322 322 323 323 324 324 325 325 326 326 327 327 327 328 329 330 330 329 328 327 327 327 327 326 326 325 326 326 325 326 327 326 326 326 326 326 326 326 326 325 325 324 322 319 321 324 320 321 324 323 323 326 328 328 327 329 329
322 322 322 322 323 323 323 322 322 323 324 323 324 324 326 326 327 327 328 328 328 329 329 329 328 327 327 327 327 327 327 328 327 327 326 327 328 328 327 325 325 326 327 327 327 326 325 323 321 320 320 322 320 321 323 323 325 322 325 327 329 329 329
322 321 322 323 323 323 323 323 324 324 323 324 324 325 326 326 326 326 326 327 328 328 328 328 329 329 329 329 328 328 328 328 328 328 327 327 326 326 326 326 326 326 327 328 327 326 327 325 324 322 322 318 317 319 319 322 322 323 323 326 328 328 328
321 321 322 323 324 323 323 323 324 323 324 324 325 325 326 326 326 326 327 328 329 328 327 326 327 327 327 327 327 328 327 329 327 326 326 326 326 326 325 326 325 325 327 328 328 328 327 327 326 325 324 321 317 314 317 316 318 320 326 322 327 329 328
320 320 321 323 324 325 323 323 323 324 324 324 325 326 327 328 327 327 328 328 327 327 327 327 327 327 327 327 326 327 327 329 329 327 327 326 326 327 327 327 326 326 327 328 328 329 328 328 327 326 326 323 321 317 314 314 316 317 322 325 322 326 329
321 323 324 325 326 325 324 324 324 323 324 325 326 327 327 327 327 328 327 326 326 325 326 328 328 327 326 325 325 326 327 328 328 327 327 327 326 327 327 327 327 326 328 328 328 329 329 328 326 326 326 325 324 319 317 315 315 318 319 324 325 323 327
323 324 326 326 325 325 325 325 325 325 326 326 327 327 327 327 327 327 327 326 326 326 327 327 327 326 327 326 327 327 327 327 326 325 326 326 326 326 326 325 326 326 327 328 329 329 328 328 327 327 325 325 324 323 320 318 313 316 322 320 323 326 326
322 323 324 324 324 324 325 325 324 324 325 326 327 327 327 327 327 326 326 326 325 326 327 327 327 326 327 325 324 324 325 326 324 324 324 325 326 325 325 324 325 326 326 327 327 327 328 327 326 325 324 324 323 323 321 319 316 316 320 321 322 324 326
319 319 319 320 320 321 322 323 323 323 325 326 327 327 326 325 325 326 327 326 325 325 325 325 326 326 325 324 322 323 325 324 324 324 325 325 327 326 326 325 325 326 327 326 326 327 326 325 326 325 324 324 323 323 321 319 317 316 317 321 323 324 326
317 316 315 316 316 317 318 319 320 320 322 325 326 326 324 323 321 321 321 320 320 321 323 325 325 325 323 322 322 322 320 320 321 323 322 323 324 326 325 326 325 325 327 326 326 327 326 325 326 324 324 324 322 322 323 320 318 317 316 320 320 324 325
314 313 312 313 314 315 316 317 318 318 319 320 322 323 321 319 317 316 316 315 315 316 316 319 324 325 324 323 323 321 322 322 323 321 321 321 324 324 323 323 323 325 326 325 325 323 325 325 325 324 323 323 322 322 322 323 319 317 318 318 321 321 323
312 312 312 312 313 313 314 315 316 316 317 317 316 316 316 315 315 314 313 313 313 312 313 314 316 323 324 323 323 323 322 322 323 323 323 322 322 323 323 322 322 323 324 322 322 322 323 324 323 324 323 323 323 323 322 322 321 319 319 318 319 320 323
312 311 311 312 312 312 312 312 313 313 314 314 314 313 313 312 311 311 310 310 310 309 309 310 310 313 318 322 323 322 322 322 322 322 323 324 326 323 323 323 323 323 323 322 321 322 323 322 323 323 323 323 323 322 322 322 322 321 319 319 319 320 323
311 311 311 310 311 311 311 311 311 311 311 311 311 311 310 310 310 308 308 308 308 307 308 308 308 308 312 316 320 322 321 321 321 322 322 323 324 324 323 323 323 323 323 321 321 321 322 322 323 322 322 322 322 321 320 321 321 320 320 320 319 317 321
310 310 309 309 310 310 310 309 309 309 309 309 308 308 309 308 308 307 307 307 306 306 306 307 307 307 310 315 318 321 322 321 321 321 321 321 322 324 324 323 322 322 321 321 322 321 321 322 322 321 321 321 321 321 320 320 320 319 319 319 317 319 318
309 309 309 308 308 308 309 308 308 308 307 306 306 306 307 307 307 307 306 305 306 306 305 305 305 306 309 316 319 321 322 322 323 323 323 323 323 322 322 321 321 322 322 322 321 320 321 320 321 321 320 321 321 320 319 319 318 318 318 318 317 316 317
309 308 308 307 306 306 307 307 306 306 305 304 305 304 305 306 306 305 305 304 304 304 303 303 303 304 306 315 318 319 320 321 322 322 321 320 320 319 318 317 318 317 320 319 314 316 319 320 321 320 321 321 320 319 319 318 317 316 316 316 315 315 316
308 307 306 305 305 305 305 305 304 303 303 302 302 303 302 304 304 303 303 303 303 302 302 303 303 301 303 310 314 315 315 316 317 319 320 319 319 319 318 318 319 317 311 310 308 300 300 305 316 320 321 321 320 319 318 317 316 316 316 315 315 314 314
307 306 306 305 304 304 303 303 302 301 301 301 300 301 300 301 301 302 302 301 301 301 301 301 298 297 298 301 311 312 312 312 312 312 313 314 314 314 314 314 314 317 315 311 305 298 297 297 299 302 298 303 314 320 318 316 314 314 314 313 313 313 314
306 306 305 304 303 303 302 301 300 300 300 299 300 300 299 299 300 300 301 301 300 299 300 298 296 298 298 298 303 310 309 309 308 307 308 308 309 311 312 312 313 313 316 316 314 311 306 300 298 298 297 297 295 297 306 315 314 313 313 313 312 313 313
305 304 304 303 302 301 300 300 299 299 298 299 299 298 299 299 299 299 300 300 299 299 298 295 295 297 298 298 298 305 307 306 305 304 304 304 305 306 308 310 311 312 312 316 316 314 312 311 303 302 302 303 302 299 298 304 307 314 314 314 313 313 313
304 304 304 303 301 300 299 298 298 298 298 298 297 297 298 298 298 298 299 299 299 298 297 295 294 296 297 297 297 301 305 304 303 303 302 302 302 302 304 307 308 309 310 311 311 313 312 311 310 310 309 308 307 305 302 301 302 303 310 315 314 314 315
303 303 303 302 301 299 298 297 297 297 296 296 296 296 296 296 297 298 298 299 298 297 296 293 294 295 296 297 297 300 303 303 302 302 302 302 301 301 301 302 305 305 306 306 304 308 313 311 310 309 308 307 306 304 302 301 305 310 311 313 313 313 312
300 301 301 300 299 298 298 296 295 296 296 295 296 296 296 296 296 296 297 297 297 296 296 293 293 294 295 296 298 302 301 301 300 300 301 301 301 301 300 300 300 301 302 302 298 296 302 312 311 310 309 309 309 308 305 300 296 298 302 303 303 303 304
298 298 298 297 296 296 296 295 295 295 294 294 294 294 295 295 296 296 296 296 296 296 295 294 293 294 295 296 298 300 300 299 299 299 299 300 300 300 300 300 299 299 299 298 295 294 297 306 312 311 310 309 309 309 309 310 301 297 296 296 296 295 295
296 296 295 295 295 295 295 295 295 295 294 293 293 294 295 295 295 296 296 296 297 295 295 295 293 293 294 295 298 300 299 298 298 298 298 298 299 299 300 300 301 298 297 296 293 293 296 305 309 310 311 310 310 309 309 311 311 308 302 300 299 297 297
296 295 295 294 295 294 295 295 295 294 294 294 294 294 295 294 294 294 295 295 298 296 295 295 293 293 293 293 298 299 299 298 297 297 297 297 298 298 299 299 298 296 296 295 292 293 294 301 304 304 306 307 307 306 306 308 308 306 306 306 305 305 304
295 294 294 294 294 294 295 294 294 294 294 294 294 293 294 293 292 292 293 293 294 295 294 294 294 292 293 293 294 298 298 298 297 297 297 297 296 297 297 297 297 292 292 292 293 293 293 294 301 301 302 301 302 302 306 306 305 306 305 304 304 304 304
293 293 293 294 294 295 294 293 293 293 293 293 293 293 292 292 292 291 291 291 292 293 294 292 293 292 292 293 293 295 297 297 297 297 297 296 297 296 296 297 297 294 292 292 292 293 293 293 296 300 298 298 298 299 302 305 304 303 304 303 303 303 303
294 294 294 294 294 294 294 294 294 292 292 292 292 291 291 291 290 290 290 290 290 289 292 294 291 292 291 292 292 292 295 296 296 298 297 297 297 297 297 297 296 294 292 292 292 292 293 293 294 298 295 293 294 295 302 303 304 304 303 303 303 302 302
293 293 293 293 292 292 293 293 293 293 292 292 291 291 290 290 289 289 289 289 289 289 289 291 291 291 291 291 291 291 291 293 293 298 296 295 295 296 297 296 296 294 292 292 292 292 292 293 295 294 292 293 294 295 298 301 300 301 300 300 300 300 300
292 291 292 291 291 291 291 292 292 292 291 291 290 290 290 289 289 288 288 288 289 288 288 288 291 291 291 290 290 290 290 291 292 294 295 295 294 294 293 294 294 292 292 292 292 293 292 292 293 292 293 293 294 295 300 299 299 299 297 297 298 298 298
Wind_Speed
3 3 3 3 2 2 3 3 4 5 6 5 6 5 5 6 7 8 8 8 7 8 7 7 8 7 5 7 8 9 8 8 9 9 9 7 8 6 8 7 6 5 5 3 4 9 4 6 6 6 6 7 8 8 8 8 9 9 9 8 8 7 7
1 2 2 3 4 3 4 1 3 5 4 4 4 5 6 8 8 8 9 9 8 8 6 7 9 9 8 10 10 9 10 9 9 10 9 9 9 10 7 7 7 7 5 2 3 4 3 6 5 9 7 7 9 8 8 8 8 7 8 9 9 8 7
4 5 4 5 5 4 4 5 4 2 4 4 5 6 7 7 8 8 8 9 10 8 6 8 10 7 7 8 10 10 10 10 8 9 10 9 8 7 7 7 8 5 4 4 4 5 5 5 6 10 8 10 10 9 8 8 8 7 8 7 8 8 7
5 4 5 6 6 5 4 4 4 4 5 4 5 6 5 6 7 7 7 8 8 7 8 8 9 9 9 9 9 9 11 11 8 7 9 11 10 8 8 8 9 10 9 9 10 8 8 5 4 7 8 10 11 9 9 9 7 7 6 7 8 8 8
3 4 4 4 4 3 3 4 5 5 5 5 5 6 6 6 6 6 7 8 7 8 9 9 9 8 8 7 7 7 6 6 8 8 9 10 11 9 10 9 9 8 9 9 9 9 10 8 9 8 8 8 6 6 4 7 5 5 7 8 8 8 8
3 4 3 4 4 3 4 4 5 6 6 6 6 7 7 7 6 7 7 7 7 7 8 8 8 9 8 8 8 9 8 9 10 9 9 11 12 10 10 10 10 10 10 8 6 8 8 5 5 5 5 7 8 7 4 6 4 6 6 7 7 8 8
4 3 3 3 5 4 3 3 4 5 6 6 7 8 8 8 7 7 8 8 8 8 8 9 9 9 8 8 8 8 9 9 9 11 12 13 12 12 10 10 10 9 9 8 8 7 8 7 5 6 5 5 4 5 2 6 5 5 6 6 7 6 6
4 4 4 4 4 4 3 4 4 5 5 6 7 8 8 8 8 8 8 8 8 8 7 7 8 8 7 7 7 8 8 7 9 10 10 11 10 8 11 10 9 9 9 8 8 9 8 9 8 8 8 7 3 3 3 4 5 9 6 7 7 7 7
3 3 4 4 4 3 3 4 5 5 5 6 6 7 7 7 8 9 8 8 7 7 7 7 8 7 7 8 8 8 10 7 8 10 10 10 11 11 9 9 7 9 9 8 8 9 8 8 7 6 7 9 8 4 3 4 3 6 6 6 5 9 9
5 4 5 5 5 4 4 4 5 5 6 5 6 6 7 7 7 8 8 8 7 7 7 7 7 7 6 5 6 7 8 7 8 10 10 10 11 11 9 10 10 9 8 7 7 7 7 6 8 9 9 10 9 8 6 6 7 6 6 8 7 7 9
5 5 5 5 5 5 5 5 5 6 6 7 6 6 7 8 7 9 7 7 6 6 6 6 6 6 6 6 8 8 7 7 7 4 6 8 10 8 9 8 7 7 8 8 8 8 7 8 9 9 9 7 7 9 7 8 7 6 5 6 6 7 9
6 6 6 6 6 5 5 6 6 7 7 7 7 8 8 8 7 7 7 6 6 6 6 6 6 5 5 6 6 5 4 3 3 5 7 8 9 8 8 9 7 7 7 8 8 8 8 7 8 8 6 5 5 6 7 6 4 3 5 8 7 4 9
8 8 7 7 6 6 5 7 8 8 8 7 7 7 7 8 8 8 7 6 6 7 7 6 5 4 5 3 2 1 1 2 3 5 6 6 5 5 4 4 6 6 4 4 5 6 7 5 3 2 2 5 5 5 3 4 7 5 4 6 6 6 9
9 8 8 9 8 8 8 8 8 8 7 7 8 8 9 9 10 9 8 9 8 8 7 7 6 4 4 4 3 3 3 3 4 5 4 4 3 4 4 6 4 4 2 4 5 5 4 6 5 4 4 5 5 5 6 6 6 3 1 3 7 7 8
7 6 6 8 8 8 8 7 8 9 9 9 8 8 10 10 10 11 11 11 11 10 10 8 6 5 5 4 4 4 3 3 2 4 5 6 2 2 3 2 3 4 2 3 2 4 5 8 7 7 7 5 4 6 5 6 5 6 7 3 5 3 6
7 7 8 7 8 8 7 8 8 9 9 10 10 10 11 11 11 11 11 10 10 10 10 10 8 6 4 4 5 3 3 3 4 2 3 2 2 2 4 3 5 2 3 3 2 1 3 6 7 7 7 6 7 7 6 3 4 5 8 6 5 6 5
8 8 8 7 9 8 8 8 8 9 9 9 10 10 11 11 11 11 10 10 10 10 9 9 10 8 6 6 5 3 2 3 3 4 4 3 4 4 4 2 2 3 2 4 3 1 2 4 5 5 7 8 6 7 5 6 4 3 6 7 6 7 6
8 8 8 7 9 9 9 8 8 8 9 10 10 10 10 11 10 11 10 11 11 11 10 9 9 9 8 7 6 4 2 1 2 3 3 4 3 2 2 3 2 0 1 2 3 5 4 5 5 5 7 5 4 2 4 2 1 3 3 6 4 2 5
9 9 8 8 9 8 9 9 8 8 9 9 10 10 11 11 10 10 11 10 10 10 9 9 9 8 7 7 6 5 3 1 2 3 1 1 2 1 1 2 3 2 1 1 3 2 3 5 6 6 7 5 5 6 4 5 5 2 4 4 5 4 6
8 8 8 8 7 8 9 9 9 9 9 9 10 9 10 11 9 10 10 10 11 11 10 9 10 10 8 6 6 6 5 3 2 2 2 2 2 2 2 1 1 3 3 3 4 3 1 3 4 5 3 2 5 6 6 6 5 5 6 6 4 6 6
8 8 8 8 9 8 8 9 9 9 10 11 11 11 10 10 9 8 10 10 10 9 9 10 12 12 11 7 7 8 8 8 6 6 6 6 6 6 7 7 6 3 2 2 2 4 4 3 2 1 2 3 4 5 7 6 5 5 5 5 6 6 5
8 9 9 9 10 10 9 9 9 9 10 10 9 10 10 10 11 11 11 10 11 10 10 11 10 11 11 10 9 9 10 9 8 8 8 8 8 7 6 6 6 6 5 5 6 4 5 4 5 5 6 6 5 5 5 5 5 5 5 6 5 4 6
9 9 10 10 10 10 10 10 10 10 11 11 10 10 11 10 11 11 11 11 10 9 11 9 16 20 17 11 9 9 10 11 11 10 9 9 10 9 9 7 8 13 9 9 6 7 8 3 6 6 2 4 5 5 4 6 7 6 7 7 7 8 8
7 9 8 9 9 10 10 9 9 10 10 10 11 11 11 13 12 11 12 11 12 11 11 12 21 21 20 20 11 10 10 10 11 10 11 11 11 10 9 9 9 11 9 9 10 13 11 10 7 6 8 6 1 6 7 6 6 5 6 3 3 6 9
9 9 9 10 9 8 8 9 9 9 10 12 11 10 13 12 11 11 11 9 10 10 9 19 20 21 21 20 15 11 10 8 8 10 10 10 10 9 9 8 7 7 8 8 7 8 11 12 11 10 11 9 6 2 4 5 4 5 7 8 7 7 5
9 10 10 9 8 8 9 10 10 10 11 9 8 13 11 12 12 11 12 12 10 11 9 18 18 19 20 20 18 13 10 10 10 10 11 11 11 10 9 8 8 8 7 13 8 6 5 6 9 12 11 11 11 10 6 6 3 2 4 6 7 7 7
9 9 8 9 9 9 10 11 9 8 7 8 10 11 12 13 12 12 11 11 11 11 9 17 18 18 18 18 18 15 12 11 10 10 11 10 11 11 11 11 10 10 9 9 8 8 7 7 8 10 10 9 8 10 12 13 10 8 3 2 5 7 5
9 8 8 8 9 10 9 8 9 8 8 9 10 11 11 12 11 11 11 10 10 12 13 21 19 18 17 16 15 13 11 10 10 12 13 12 11 11 11 11 10 11 11 11 10 11 9 9 9 10 11 10 9 9 10 10 8 5 5 3 1 2 3
8 8 8 8 9 10 9 9 9 7 8 8 8 8 9 10 11 12 11 11 12 13 14 22 20 20 18 15 14 10 10 12 12 13 14 14 15 14 13 12 11 12 11 12 15 18 13 7 9 10 10 9 10 10 10 7 11 12 10 8 6 6 4
9 8 8 9 9 9 8 8 8 6 8 8 8 10 9 9 9 10 12 13 13 12 13 19 21 20 18 16 12 10 10 11 12 13 13 13 12 15 16 16 14 11 12 11 16 18 17 11 9 10 9 9 8 10 9 8 10 13 12 13 13 14 12
6 6 6 8 7 7 7 6 7 6 8 8 10 8 7 9 10 10 12 13 12 11 12 18 21 20 19 17 12 10 9 10 11 11 11 12 11 12 17 25 20 15 15 13 20 21 18 12 11 10 8 7 9 9 8 7 6 9 13 13 15 15 17
5 5 5 5 5 5 6 6 5 6 7 7 8 7 8 9 10 10 11 11 17 15 12 15 21 21 21 20 13 9 9 9 11 10 9 10 10 11 12 14 22 17 16 19 24 22 22 15 11 10 9 9 9 10 9 7 7 8 9 10 11 10 12
6 6 7 7 7 6 4 5 6 7 6 7 7 7 8 9 10 9 9 10 11 11 12 12 16 21 20 21 18 10 8 10 10 10 10 9 10 10 11 11 15 20 21 21 21 23 22 19 13 11 10 11 11 11 8 7 10 8 8 8 8 9 10
8 7 6 7 7 7 7 7 7 7 7 7 8 9 9 8 9 9 9 9 9 10 10 10 13 19 19 19 19 14 9 9 8 8 8 10 10 10 10 10 9 16 19 20 20 21 21 21 17 13 12 11 9 7 8 7 9 9 7 8 8 9 9
7 7 7 8 9 9 7 7 7 6 7 7 9 9 8 8 8 8 9 9 9 8 10 14 10 15 18 18 18 17 10 10 9 7 9 9 9 9 9 8 9 13 17 18 18 18 19 19 20 14 15 17 18 17 11 8 8 8 8 8 7 8 9
8 7 7 7 9 9 7 8 8 7 8 8 9 9 8 8 8 8 8 8 8 8 8 9 15 12 16 17 18 17 17 12 13 9 9 9 9 8 7 8 9 14 16 16 17 18 17 18 14 14 18 18 18 17 13 10 9 10 9 8 8 9 8
8 7 7 7 8 9 8 7 8 7 7 7 8 9 8 7 8 9 9 9 8 8 7 7 11 14 13 16 16 17 16 16 14 8 8 7 7 7 7 7 10 15 15 15 15 15 16 15 12 16 16 17 16 14 10 10 10 9 9 10 10 9 8
Wind_Direction
212 232 261 274 259 247 280 198 222 235 246 238 245 251 238 232 228 245 252 251 252 254 261 265 258 253 255 255 239 231 231 223 222 227 236 219 215 221 197 217 224 200 204 231 179 185 163 177 184 194 200 193 192 202 198 202 197 188 182 188 187 187 185
274 254 287 298 296 315 329 297 210 250 262 262 254 245 237 239 238 241 248 255 253 251 239 256 260 252 238 243 240 229 223 225 215 220 227 229 220 224 187 209 203 201 188 178 341 323 178 179 200 181 186 183 195 200 203 204 204 193 189 187 189 187 184
1 339 352 331 328 335 329 323 329 298 273 277 265 250 245 242 242 241 241 247 252 253 243 240 253 249 247 247 243 236 231 233 223 222 224 226 220 221 209 199 195 188 162 186 215 211 276 226 179 188 183 178 192 199 193 199 197 193 191 186 188 191 189
6 7 359 352 345 346 344 328 322 314 318 302 295 285 258 255 254 249 244 245 247 250 253 252 253 250 240 243 252 254 243 231 223 212 222 230 223 217 212 205 200 198 192 194 199 198 202 199 183 194 190 194 199 179 197 194 191 189 184 190 188 193 192
16 11 357 344 331 324 332 331 327 334 322 306 300 295 291 279 272 266 258 256 252 246 244 242 247 247 250 243 234 228 241 244 242 219 219 223 223 221 216 210 210 205 209 202 200 192 196 210 191 189 191 190 205 209 168 188 185 177 184 195 196 191 193
12 8 337 326 322 321 334 346 339 328 318 321 313 309 299 294 286 282 273 262 257 248 247 246 244 250 248 244 245 242 231 223 225 224 225 222 220 214 211 203 205 202 210 206 190 194 202 189 181 173 197 176 187 193 164 156 192 203 201 193 191 195 188
1 353 333 326 323 318 321 324 313 307 309 299 301 301 297 301 296 284 281 274 265 260 257 252 251 252 248 242 245 254 247 238 231 228 232 232 227 218 208 202 203 209 214 203 197 190 191 191 183 180 179 194 188 174 127 169 166 171 212 209 192 189 186
352 340 325 322 326 327 318 328 317 310 300 296 294 294 298 294 292 291 284 277 273 265 260 261 259 257 249 252 238 239 244 237 235 231 232 233 231 214 215 210 199 199 208 205 196 198 190 197 190 182 173 166 136 157 166 169 168 200 183 192 191 190 193
344 331 333 339 336 341 335 342 321 307 298 295 293 295 297 296 297 297 291 285 280 272 268 264 260 252 245 244 245 242 246 239 234 227 231 230 231 219 208 215 204 210 205 201 198 198 198 197 200 175 185 172 163 184 187 206 198 215 174 165 183 192 189
357 350 339 332 334 342 348 333 319 307 301 301 304 308 309 308 303 298 298 293 285 273 272 270 262 254 250 248 254 255 253 246 237 228 224 227 229 223 211 203 199 203 205 200 204 204 202 204 202 191 185 181 176 171 170 201 210 192 190 179 177 193 189
360 357 351 346 346 352 347 341 328 329 333 325 320 314 312 312 312 313 302 295 286 282 279 275 266 261 255 252 252 252 251 249 250 257 243 229 227 215 210 200 193 194 206 199 202 202 209 190 202 204 190 188 170 177 181 191 213 188 167 189 187 181 183
18 16 14 16 18 9 0 359 354 343 335 333 328 327 327 325 325 319 312 312 319 323 314 297 279 275 264 255 249 253 258 263 261 228 223 223 221 210 205 196 192 201 199 204 205 197 201 202 199 203 179 156 182 179 180 183 198 224 163 184 205 180 178
24 19 12 10 9 5 2 11 2 350 344 336 334 335 339 343 342 338 335 336 350 349 349 344 328 308 302 315 317 303 301 265 264 272 247 216 190 171 177 202 200 201 196 210 213 208 197 181 159 144 175 158 175 197 170 183 205 206 186 180 186 179 177
27 17 19 17 12 8 9 5 1 351 336 352 351 356 0 2 359 355 360 2 3 359 353 357 345 340 350 342 342 353 6 348 322 329 331 165 116 142 156 182 189 201 176 204 199 213 184 168 164 168 169 184 192 176 183 190 198 167 181 194 171 175 178
33 25 24 21 15 10 7 2 3 359 355 351 353 10 13 12 7 6 10 7 6 8 359 347 344 344 359 340 349 341 354 312 349 358 2 19 43 127 139 123 179 206 190 209 189 219 185 167 166 175 193 170 175 196 189 172 187 169 183 197 171 149 162
38 33 29 21 14 11 5 8 8 8 12 12 13 17 17 15 12 10 11 8 6 8 6 356 345 338 340 355 353 357 357 0 4 36 28 42 33 29 45 61 52 19 167 230 271 89 142 160 162 175 177 165 199 202 197 205 157 180 174 194 174 164 163
41 35 30 20 19 13 12 10 7 16 15 24 21 18 19 14 14 12 8 3 3 1 355 358 344 344 356 355 356 347 333 28 41 27 18 6 47 39 54 61 117 166 128 124 157 170 150 161 163 173 186 192 199 198 177 195 195 224 182 170 194 178 158
43 37 32 25 21 18 14 16 12 12 13 22 22 21 21 18 17 15 11 6 3 3 356 345 343 349 350 347 342 341 350 7 33 35 25 14 21 45 81 77 84 295 210 173 187 194 178 154 171 181 194 188 189 165 107 98 211 267 194 188 159 112 116
42 38 34 28 26 23 18 15 17 19 19 20 25 25 24 23 20 16 11 6 6 3 354 353 350 343 340 343 337 333 338 6 44 78 43 20 28 308 190 157 143 179 217 209 224 206 175 157 176 196 206 181 134 110 151 186 184 188 173 160 135 134 179
42 41 35 32 27 25 26 21 24 23 17 20 21 17 17 15 12 14 7 7 11 3 356 2 358 348 340 344 355 354 358 12 57 72 72 47 5 4 5 345 143 168 190 211 208 170 146 174 184 207 224 155 144 158 186 199 186 184 181 165 151 162 166
46 43 41 37 32 26 24 21 21 20 21 23 21 15 12 9 6 13 13 10 6 360 358 6 3 351 340 345 11 25 24 27 29 31 34 34 28 22 19 14 3 350 263 243 210 174 144 131 108 248 270 225 183 162 182 186 183 180 177 173 173 160 129
47 46 45 41 38 30 25 28 30 28 26 25 21 14 11 12 13 14 13 15 9 5 13 10 5 354 352 354 13 28 26 23 22 24 32 35 32 30 28 26 22 6 9 22 354 1 68 109 171 174 198 206 196 185 180 175 174 166 178 171 151 147 155
55 52 47 43 40 38 35 36 36 36 34 31 26 22 19 21 23 20 17 12 9 10 15 15 8 12 14 10 17 27 33 28 22 18 17 23 25 22 19 18 25 32 19 20 26 54 81 128 190 186 146 208 188 192 186 185 179 177 170 175 172 163 173
49 51 48 46 44 41 38 37 37 37 35 32 28 25 25 29 25 20 22 22 18 17 17 15 12 21 19 17 27 36 39 34 29 27 24 24 23 14 10 11 10 15 21 25 16 28 47 39 30 66 59 60 157 195 190 195 177 164 163 144 139 168 186
57 57 56 51 47 42 39 40 41 38 38 35 31 31 34 29 27 22 23 22 22 14 15 9 15 22 23 23 24 39 36 30 31 33 28 25 20 15 9 10 14 16 26 28 29 28 43 51 52 58 67 73 73 51 195 171 149 150 140 153 171 199 179
62 60 59 57 52 49 45 44 41 38 39 33 35 41 33 32 28 24 26 25 19 15 15 6 14 25 29 28 24 37 41 36 37 30 29 24 20 17 10 12 14 19 4 16 28 29 33 46 57 55 46 43 42 39 39 130 22 52 141 141 154 172 168
62 61 61 60 58 53 50 46 42 39 39 37 41 43 39 38 33 29 28 28 29 23 19 5 14 23 33 35 33 39 42 38 35 36 33 25 21 16 11 14 24 18 12 17 15 26 32 45 46 49 47 35 25 15 22 24 40 48 36 111 139 154 173
63 60 60 62 61 58 55 52 47 40 40 40 41 40 36 38 34 30 28 29 36 31 20 10 15 20 26 34 39 48 46 42 40 38 35 29 22 18 13 9 17 23 17 19 11 11 33 38 52 58 58 50 42 36 33 22 11 15 37 34 32 58 41
66 64 64 64 64 61 56 51 48 39 47 46 46 46 43 43 37 33 28 30 38 35 22 14 16 21 23 25 38 47 43 42 41 38 35 31 30 27 25 16 16 17 14 18 8 19 13 30 55 56 55 55 58 52 49 39 49 54 59 54 34 16 352
71 68 66 68 66 62 60 53 49 38 52 48 47 43 43 42 38 36 35 34 35 35 29 16 15 19 22 23 40 45 44 45 42 41 36 32 32 32 31 27 28 18 20 14 7 22 14 20 46 43 48 50 50 57 45 24 41 52 53 65 70 67 55
68 63 62 66 67 65 64 59 56 42 54 50 48 42 40 46 42 39 38 38 34 39 33 20 19 18 19 22 39 47 47 51 48 41 38 35 34 35 33 32 33 32 30 20 18 22 18 35 38 27 22 35 41 41 28 10 21 35 39 37 39 47 54
59 59 58 54 56 64 60 62 55 50 53 56 56 51 47 50 48 41 38 37 36 39 34 26 22 22 23 19 25 40 43 54 53 41 41 39 36 36 32 31 33 32 36 30 28 24 21 26 48 34 21 28 37 34 14 0 15 32 30 34 26 26 31
56 58 61 58 54 53 51 55 50 55 52 54 59 54 53 52 54 46 37 36 35 32 31 28 23 24 26 25 20 30 34 47 45 41 41 42 42 36 33 31 29 30 35 35 35 33 29 26 39 39 36 36 31 25 352 21 22 32 43 44 42 36 38
61 57 58 66 64 58 51 57 54 55 56 53 59 54 51 51 52 48 40 38 37 31 33 28 21 24 26 28 25 26 36 34 32 38 42 42 41 38 33 30 30 24 33 35 36 35 36 33 34 42 37 34 21 12 26 41 29 27 38 33 38 40 37
56 59 54 57 61 58 51 55 55 56 58 59 59 55 49 48 50 47 41 36 34 29 23 28 24 23 25 28 31 32 36 28 17 36 42 46 38 36 30 26 28 20 29 34 35 34 35 36 34 40 29 30 27 30 34 30 33 34 36 31 28 37 37
55 55 56 56 64 62 52 54 50 48 54 56 56 54 45 42 46 44 41 34 29 26 19 19 26 24 22 27 28 31 34 33 22 35 41 41 32 25 19 20 16 17 26 29 32 33 34 34 38 34 31 30 29 26 32 35 31 31 29 29 30 29 25
57 53 54 59 63 64 56 57 57 50 52 56 57 55 40 38 44 43 38 31 26 21 17 19 19 23 24 26 28 30 31 32 32 37 41 39 27 25 22 18 19 20 22 22 25 29 32 33 32 31 34 32 32 29 31 32 32 30 29 28 28 22 19